Weather History for Spirit of St Louis, MO

Change the Weather History Date:

Friday, March 22, 2013

  Actual Average Record
Temperature  
Mean Temperature 37 °F -  
Max Temperature 42 °F 55 °F 75 °F (2007)
Min Temperature 32 °F 33 °F 17 °F (2006)
Degree Days  
Heating Degree Days 28    
Moisture  
Dew Point 21 °F    
Average Humidity 53    
Maximum Humidity 61    
Minimum Humidity 43    
Precipitation  
Precipitation 0.00 in - - ()
Sea Level Pressure  
Sea Level Pressure 30.03 in    
Wind  
Wind Speed 5 mph (East)    
Max Wind Speed 9 mph    
Max Gust Speed -    
Visibility 10 miles    
Events      
Averages and records for this station are not official NWS values.
T = Trace of Precipitation, MM = Missing Value Source: NWS Daily Summary

Daily Weather History Graph

Daily Weather History Graph

Search for Another Location

Airport:

Trip Planner

Search our weather history database for the weather conditions in past years. The results will help you decide how hot, cold, wet, or windy it might be!

Date:

Astronomy

Mar. 22, 2013 Rise Set
Actual Time 7:02 AM CDT 7:16 PM CDT
Civil Twilight 6:36 AM CDT 7:43 PM CDT
Nautical Twilight 6:05 AM CDT 8:14 PM CDT
Astronomical Twilight 5:33 AM CDT 8:46 PM CDT
Moon 2:46 PM CDT (3/22) 4:00 AM CDT (3/22)
Length of Visible Light 13h 07m
Length of Day
12h 14m
Waxing Gibbous, 77% of the Moon is Illuminated
Mar 22
Waxing Gibbous
Mar 27
Full
Apr 2
Last Quarter
Apr 10
New
Apr 18
First Quarter

Hourly Weather History & Observations

Time (CDT) Temp. Windchill Dew Point Humidity Pressure Visibility Wind Dir Wind Speed Gust Speed Precip Events Conditions
12:54 AM 32.0 °F 27.5 °F 18.0 °F 56% 30.04 in 10.0 mi East 4.6 mph - N/A   Overcast
1:54 AM 33.1 °F 28.7 °F 18.0 °F 54% 30.04 in 10.0 mi East 4.6 mph - N/A   Overcast
2:54 AM 33.1 °F 30.0 °F 18.0 °F 54% 30.05 in 10.0 mi ESE 3.5 mph - N/A   Overcast
3:54 AM 33.1 °F 28.7 °F 19.0 °F 56% 30.02 in 10.0 mi East 4.6 mph - N/A   Overcast
4:54 AM 33.1 °F 30.0 °F 19.9 °F 59% 30.02 in 10.0 mi East 3.5 mph - N/A   Overcast
5:54 AM 33.1 °F 28.7 °F 19.9 °F 59% 30.03 in 10.0 mi East 4.6 mph - N/A   Overcast
6:54 AM 33.1 °F 30.0 °F 21.0 °F 61% 30.04 in 10.0 mi East 3.5 mph - N/A   Overcast
7:54 AM 33.1 °F 28.7 °F 21.0 °F 61% 30.05 in 10.0 mi East 4.6 mph - N/A   Overcast
8:54 AM 34.0 °F 31.0 °F 21.0 °F 59% 30.07 in 10.0 mi ESE 3.5 mph - N/A   Overcast
9:54 AM 34.0 °F 28.8 °F 21.0 °F 59% 30.07 in 10.0 mi East 5.8 mph - N/A   Overcast
10:54 AM 36.0 °F 32.1 °F 21.0 °F 55% 30.06 in 10.0 mi SSE 4.6 mph - N/A   Overcast
11:54 AM 37.9 °F 33.5 °F 21.0 °F 51% 30.05 in 10.0 mi East 5.8 mph - N/A   Overcast
12:54 PM 41.0 °F 39.0 °F 21.0 °F 45% 30.03 in 10.0 mi Variable 3.5 mph - N/A   Overcast
1:54 PM 42.1 °F 37.7 °F 21.0 °F 43% 30.02 in 10.0 mi SSE 6.9 mph - N/A   Overcast
2:54 PM 42.1 °F 36.6 °F 21.0 °F 43% 30.01 in 10.0 mi ESE 9.2 mph - N/A   Overcast
3:54 PM 42.1 °F 37.7 °F 21.9 °F 45% 30.01 in 10.0 mi ESE 6.9 mph - N/A   Overcast
4:54 PM 41.0 °F 38.0 °F 21.9 °F 47% 30.01 in 10.0 mi East 4.6 mph - N/A   Overcast
5:54 PM 41.0 °F 36.4 °F 21.9 °F 47% 30.00 in 10.0 mi ESE 6.9 mph - N/A   Overcast
6:54 PM 41.0 °F 37.1 °F 23.0 °F 49% 30.01 in 10.0 mi East 5.8 mph - N/A   Overcast
7:54 PM 39.9 °F 36.7 °F 25.0 °F 55% 30.01 in 10.0 mi East 4.6 mph - N/A   Overcast
8:54 PM 39.9 °F 37.8 °F 24.1 °F 53% 30.02 in 10.0 mi East 3.5 mph - N/A   Overcast
9:54 PM 39.9 °F - 25.0 °F 55% 30.05 in 10.0 mi Calm Calm - N/A   Overcast
10:54 PM 39.9 °F 35.8 °F 26.1 °F 58% 30.04 in 10.0 mi NE 5.8 mph - N/A   Overcast
11:54 PM 39.0 °F 33.4 °F 25.0 °F 57% 30.04 in 10.0 mi ENE 8.1 mph - N/A   Overcast